2021/03/03 23:31:30+0000,-41.78,-49.78,-32.53,-49.26,-54.68,-57.20
2021/03/03 23:32:22+0000,-41.75,-49.08,-32.61,-49.44,-53.54,-57.28
2021/03/03 23:33:14+0000,-41.58,-49.13,-32.60,-49.78,-53.70,-57.03
2021/03/03 23:34:06+0000,-41.47,-50.77,-33.36,-49.85,-54.28,-57.28
2021/03/03 23:34:58+0000,-41.26,-50.11,-32.89,-49.45,-54.25,-57.19
2021/03/03 23:35:50+0000,-41.49,-49.92,-32.99,-50.14,-54.12,-56.86
2021/03/03 23:36:42+0000,-40.93,-49.74,-33.08,-49.62,-54.50,-57.19
2021/03/03 23:37:34+0000,-41.01,-49.14,-32.15,-50.11,-54.76,-57.57
2021/03/03 23:38:26+0000,-41.02,-49.33,-32.80,-49.66,-54.58,-57.12
2021/03/03 23:39:18+0000,-41.50,-50.13,-33.20,-50.32,-54.82,-57.13
2021/03/03 23:40:11+0000,-40.18,-49.74,-32.84,-49.83,-54.64,-57.29
2021/03/03 23:41:11+0000,-41.62,-49.22,-33.35,-49.83,-54.48,-57.63
2021/03/03 23:42:03+0000,-40.56,-48.84,-32.94,-48.57,-54.72,-57.30
2021/03/03 23:42:55+0000,-40.75,-49.17,-32.98,-49.83,-54.60,-57.07
2021/03/03 23:43:47+0000,-40.88,-48.64,-32.93,-49.41,-54.73,-57.78
2021/03/03 23:44:39+0000,-41.07,-49.90,-32.39,-49.78,-54.28,-57.24
2021/03/03 23:45:31+0000,-41.37,-48.65,-32.09,-49.42,-54.31,-57.69
2021/03/03 23:46:23+0000,-41.21,-49.83,-32.49,-49.15,-54.41,-57.23
2021/03/03 23:47:15+0000,-41.18,-49.25,-33.22,-49.41,-54.54,-57.99
2021/03/03 23:48:07+0000,-41.29,-49.61,-32.55,-49.58,-54.83,-57.61
2021/03/03 23:48:59+0000,-40.60,-48.81,-32.55,-49.75,-54.44,-57.51
2021/03/03 23:49:51+0000,-41.30,-49.39,-32.72,-50.10,-54.77,-57.04
2021/03/03 23:50:43+0000,-41.04,-49.46,-32.57,-49.86,-54.88,-57.30
2021/03/03 23:51:43+0000,-40.74,-49.38,-32.57,-49.71,-54.42,-57.52
2021/03/03 23:52:35+0000,-41.26,-48.28,-32.40,-50.32,-54.63,-56.87
2021/03/03 23:53:27+0000,-40.95,-49.44,-32.35,-49.33,-53.24,-54.95
2021/03/03 23:54:19+0000,-40.50,-49.10,-32.51,-49.26,-54.03,-54.86
2021/03/03 23:55:11+0000,-40.96,-49.42,-32.85,-50.02,-54.44,-54.85
2021/03/03 23:56:03+0000,-40.54,-48.42,-32.75,-50.20,-53.77,-53.84
2021/03/03 23:56:55+0000,-41.61,-48.85,-32.19,-50.38,-53.74,-54.25
2021/03/03 23:57:48+0000,-40.86,-49.25,-32.31,-49.07,-54.17,-55.43
2021/03/03 23:58:40+0000,-36.95,-49.27,-32.62,-49.91,-54.61,-54.60
2021/03/03 23:59:32+0000,-40.76,-48.01,-32.90,-49.14,-53.98,-54.56
2021/03/04 00:00:24+0000,-40.97,-48.96,-33.11,-48.49,-53.58,-54.69
2021/03/04 00:01:30+0000,-40.13,-48.37,-33.06,-48.90,-53.62,-55.42
2021/03/04 00:02:22+0000,-40.28,-49.33,-32.96,-49.38,-54.11,-54.51
2021/03/04 00:03:14+0000,-41.35,-48.67,-32.84,-49.85,-54.09,-54.59
2021/03/04 00:04:06+0000,-42.66,-49.07,-33.00,-49.93,-54.04,-55.37
2021/03/04 00:04:58+0000,-41.25,-48.03,-32.62,-48.84,-54.41,-55.55
2021/03/04 00:05:50+0000,-40.84,-49.58,-32.69,-48.06,-53.98,-55.44
2021/03/04 00:06:42+0000,-40.90,-48.80,-32.13,-43.15,-53.88,-54.54
2021/03/04 00:07:34+0000,-39.98,-48.72,-32.27,-44.45,-53.90,-55.00
2021/03/04 00:08:26+0000,-40.35,-48.51,-32.56,-44.36,-54.10,-54.79
2021/03/04 00:09:18+0000,-41.01,-47.88,-32.72,-43.78,-54.43,-55.88
2021/03/04 00:10:11+0000,-40.70,-48.44,-32.53,-44.30,-53.98,-54.45
2021/03/04 00:11:09+0000,-40.29,-48.64,-32.55,-43.24,-53.83,-54.34
2021/03/04 00:12:01+0000,-40.71,-48.98,-32.63,-44.36,-53.73,-54.10
2021/03/04 00:12:53+0000,-40.56,-48.77,-32.30,-43.23,-53.49,-54.42
2021/03/04 00:13:45+0000,-40.76,-48.47,-32.97,-43.97,-53.59,-55.09
2021/03/04 00:14:37+0000,-40.95,-49.15,-32.19,-39.00,-53.68,-54.48
2021/03/04 00:15:29+0000,-40.03,-48.16,-32.66,-43.47,-54.16,-54.41
2021/03/04 00:16:21+0000,-40.65,-49.51,-32.66,-43.75,-53.95,-54.06
2021/03/04 00:17:13+0000,-40.93,-48.23,-31.99,-42.96,-53.87,-54.29
2021/03/04 00:18:05+0000,-40.15,-49.27,-32.90,-42.22,-54.63,-54.75
2021/03/04 00:18:57+0000,-40.81,-48.27,-32.59,-43.23,-54.09,-54.35
2021/03/04 00:19:49+0000,-40.88,-48.16,-32.62,-42.58,-54.33,-55.12
2021/03/04 00:20:41+0000,-40.72,-47.99,-32.60,-41.97,-53.05,-54.87
2021/03/04 00:21:46+0000,-40.34,-48.07,-32.55,-42.02,-53.48,-54.43
2021/03/04 00:22:38+0000,-40.11,-47.91,-32.64,-41.76,-53.20,-54.47
2021/03/04 00:23:30+0000,-40.10,-48.46,-32.06,-42.39,-52.68,-55.38
2021/03/04 00:24:22+0000,-40.66,-48.68,-32.66,-42.99,-53.99,-55.53
2021/03/04 00:25:15+0000,-39.31,-47.97,-32.13,-43.02,-54.08,-55.14
2021/03/04 00:26:07+0000,-39.78,-49.13,-32.08,-42.66,-53.61,-55.33
2021/03/04 00:26:59+0000,-40.68,-47.84,-32.31,-42.18,-53.14,-55.03
2021/03/04 00:27:51+0000,-40.04,-49.61,-31.92,-42.49,-53.19,-54.52
2021/03/04 00:28:43+0000,-40.90,-48.76,-32.63,-50.16,-53.85,-55.15
2021/03/04 00:29:35+0000,-41.20,-48.45,-31.94,-50.39,-54.21,-55.75
2021/03/04 00:30:27+0000,-40.86,-48.90,-31.45,-49.59,-53.68,-55.51
2021/03/04 00:31:33+0000,-41.18,-47.84,-31.56,-50.20,-54.21,-55.37
2021/03/04 00:32:25+0000,-41.33,-48.36,-32.36,-49.56,-53.72,-55.58
2021/03/04 00:33:17+0000,-40.60,-47.96,-31.82,-49.76,-53.82,-55.49
2021/03/04 00:34:09+0000,-40.36,-47.88,-32.03,-49.90,-52.99,-55.49
2021/03/04 00:35:01+0000,-40.76,-47.58,-32.26,-50.31,-53.58,-55.18
2021/03/04 00:35:53+0000,-40.77,-48.49,-32.67,-50.36,-54.03,-55.58
2021/03/04 00:36:45+0000,-41.93,-46.81,-32.00,-49.74,-54.03,-55.64
2021/03/04 00:37:37+0000,-41.12,-49.51,-32.55,-49.74,-53.04,-55.57
2021/03/04 00:38:29+0000,-41.66,-48.24,-32.30,-49.55,-53.70,-54.97
2021/03/04 00:39:21+0000,-41.68,-49.17,-31.94,-49.76,-53.49,-54.88
2021/03/04 00:40:13+0000,-41.38,-48.35,-32.50,-49.62,-53.30,-55.10
2021/03/04 00:41:12+0000,-41.48,-48.13,-32.29,-50.21,-54.19,-55.05
2021/03/04 00:42:04+0000,-41.26,-46.55,-32.33,-49.80,-53.66,-54.49
2021/03/04 00:42:56+0000,-41.88,-47.36,-32.46,-49.24,-53.16,-53.42
2021/03/04 00:43:48+0000,-41.43,-47.22,-32.09,-49.28,-52.28,-53.75
2021/03/04 00:44:40+0000,-42.06,-46.89,-32.13,-49.17,-52.76,-53.90
2021/03/04 00:45:32+0000,-40.78,-47.59,-32.38,-49.35,-52.64,-54.23
2021/03/04 00:46:24+0000,-40.56,-47.71,-31.98,-49.30,-52.37,-53.57
2021/03/04 00:47:17+0000,-41.59,-48.66,-32.39,-49.83,-52.42,-54.14
2021/03/04 00:48:09+0000,-41.31,-49.01,-32.32,-49.33,-52.54,-53.42
2021/03/04 00:49:01+0000,-42.44,-47.64,-31.97,-48.95,-52.99,-53.45
2021/03/04 00:49:53+0000,-42.40,-49.02,-32.05,-49.30,-52.72,-53.37
2021/03/04 00:50:45+0000,-42.08,-48.09,-32.34,-49.44,-52.51,-53.41
2021/03/04 00:51:44+0000,-42.59,-47.92,-32.19,-49.25,-52.94,-53.51
2021/03/04 00:52:36+0000,-42.56,-49.94,-32.52,-49.50,-51.81,-53.51
2021/03/04 00:53:28+0000,-42.24,-47.67,-32.36,-49.11,-52.38,-53.75
2021/03/04 00:54:20+0000,-41.01,-48.16,-32.24,-50.01,-53.09,-54.03
2021/03/04 00:55:12+0000,-40.67,-48.06,-32.37,-49.37,-52.76,-53.49
2021/03/04 00:56:04+0000,-40.52,-46.72,-32.47,-49.51,-52.00,-53.18
2021/03/04 00:56:56+0000,-40.52,-48.30,-32.03,-49.46,-52.12,-52.85
2021/03/04 00:57:48+0000,-41.16,-47.30,-32.27,-48.66,-52.12,-53.68
2021/03/04 00:58:40+0000,-41.12,-46.61,-32.46,-48.55,-52.09,-54.11
2021/03/04 00:59:32+0000,-41.63,-48.55,-32.35,-48.96,-52.38,-54.09
2021/03/04 01:00:25+0000,-40.73,-47.96,-31.86,-48.92,-53.13,-54.02
2021/03/04 01:01:24+0000,-40.70,-48.03,-32.41,-49.32,-52.11,-53.78
2021/03/04 01:02:16+0000,-41.23,-49.06,-32.25,-49.12,-52.76,-53.67
2021/03/04 01:03:08+0000,-40.60,-47.88,-32.14,-49.14,-52.73,-53.37
2021/03/04 01:04:00+0000,-40.71,-48.07,-32.37,-49.02,-52.69,-53.06
2021/03/04 01:04:52+0000,-40.68,-48.79,-32.15,-48.89,-52.13,-54.73
2021/03/04 01:05:44+0000,-41.06,-47.64,-32.43,-49.01,-52.44,-53.96
2021/03/04 01:06:36+0000,-40.36,-49.81,-32.47,-48.97,-51.90,-53.58
2021/03/04 01:07:28+0000,-41.93,-48.59,-32.67,-48.82,-52.86,-53.70
2021/03/04 01:08:20+0000,-41.52,-49.90,-32.26,-49.53,-51.78,-53.67
2021/03/04 01:09:12+0000,-40.88,-48.31,-32.98,-48.51,-52.55,-53.58
2021/03/04 01:10:05+0000,-41.37,-48.73,-32.12,-49.07,-52.92,-54.20
2021/03/04 01:11:15+0000,-41.37,-48.39,-32.47,-48.26,-53.49,-53.46
2021/03/04 01:12:07+0000,-41.81,-48.19,-32.37,-48.90,-53.55,-54.46
2021/03/04 01:12:59+0000,-40.52,-47.41,-32.84,-49.07,-53.67,-54.06
2021/03/04 01:13:51+0000,-41.56,-49.51,-32.40,-49.36,-54.07,-54.36
2021/03/04 01:14:43+0000,-40.74,-48.31,-32.61,-49.08,-53.79,-53.54
2021/03/04 01:15:35+0000,-41.25,-49.19,-32.51,-49.55,-52.98,-53.54
2021/03/04 01:16:27+0000,-41.17,-48.30,-32.49,-49.59,-53.70,-54.33
2021/03/04 01:17:19+0000,-40.73,-47.86,-32.00,-49.95,-53.28,-54.70
2021/03/04 01:18:12+0000,-40.85,-46.50,-31.98,-49.57,-53.12,-53.69
2021/03/04 01:19:04+0000,-40.86,-48.28,-32.10,-49.65,-53.79,-54.20
2021/03/04 01:19:56+0000,-40.33,-48.07,-32.26,-49.12,-53.34,-53.47
2021/03/04 01:20:48+0000,-40.21,-47.48,-31.88,-49.99,-53.98,-52.86
2021/03/04 01:21:49+0000,-40.89,-47.68,-31.99,-48.94,-53.46,-53.78
2021/03/04 01:22:41+0000,-39.76,-45.73,-31.96,-50.35,-53.17,-54.15
2021/03/04 01:23:33+0000,-39.98,-47.46,-32.38,-50.11,-53.60,-54.52
2021/03/04 01:24:25+0000,-40.18,-47.52,-31.99,-49.71,-53.30,-55.05
2021/03/04 01:25:17+0000,-40.41,-46.72,-32.14,-49.44,-53.35,-54.26
2021/03/04 01:26:09+0000,-40.25,-45.59,-32.21,-50.06,-53.36,-54.63
2021/03/04 01:27:01+0000,-39.99,-47.19,-31.66,-50.67,-53.60,-55.75
2021/03/04 01:27:53+0000,-39.95,-48.33,-31.72,-49.74,-54.26,-55.23
2021/03/04 01:28:45+0000,-40.09,-47.21,-31.75,-50.14,-54.17,-55.88
2021/03/04 01:29:37+0000,-40.54,-49.02,-31.97,-49.67,-54.07,-55.41
2021/03/04 01:30:29+0000,-40.31,-46.80,-32.61,-50.34,-53.86,-54.85
2021/03/04 01:31:29+0000,-40.39,-47.00,-32.00,-49.77,-54.33,-55.63
2021/03/04 01:32:21+0000,-40.32,-49.13,-31.65,-50.06,-54.23,-55.44
2021/03/04 01:33:13+0000,-40.38,-46.34,-31.91,-49.69,-54.17,-55.64
2021/03/04 01:34:05+0000,-39.98,-47.43,-32.15,-49.38,-53.84,-55.96
2021/03/04 01:34:57+0000,-40.13,-46.65,-32.12,-50.38,-53.38,-55.71
2021/03/04 01:35:49+0000,-39.39,-46.13,-32.06,-49.88,-54.15,-55.56
2021/03/04 01:36:41+0000,-40.62,-47.27,-32.15,-49.92,-53.87,-56.09
2021/03/04 01:37:33+0000,-41.10,-46.64,-31.99,-49.90,-52.66,-55.58
2021/03/04 01:38:25+0000,-40.14,-47.06,-31.85,-50.15,-53.76,-56.02
2021/03/04 01:39:17+0000,-39.80,-46.86,-31.99,-49.81,-53.63,-55.49
2021/03/04 01:40:10+0000,-40.81,-46.82,-31.48,-49.78,-53.99,-55.36
2021/03/04 01:41:10+0000,-41.08,-46.85,-31.22,-49.80,-54.08,-56.05
2021/03/04 01:42:02+0000,-40.79,-45.52,-31.80,-49.78,-53.58,-55.55
2021/03/04 01:42:54+0000,-40.52,-47.17,-31.77,-49.88,-53.62,-55.14
2021/03/04 01:43:46+0000,-40.72,-47.86,-31.72,-49.72,-54.17,-55.28
2021/03/04 01:44:38+0000,-40.29,-48.50,-31.46,-49.91,-53.75,-55.60
2021/03/04 01:45:30+0000,-40.66,-45.36,-32.48,-50.41,-53.95,-56.02
2021/03/04 01:46:22+0000,-39.69,-50.09,-31.88,-50.36,-53.18,-56.05
2021/03/04 01:47:14+0000,-40.60,-47.63,-31.78,-50.36,-54.04,-55.54
2021/03/04 01:48:06+0000,-41.12,-48.90,-32.65,-50.81,-53.08,-55.94
2021/03/04 01:48:58+0000,-41.65,-45.80,-32.05,-50.10,-53.23,-56.18
2021/03/04 01:49:50+0000,-41.61,-48.35,-32.31,-50.56,-53.82,-56.08
2021/03/04 01:50:42+0000,-40.86,-46.91,-31.92,-49.73,-53.73,-55.71
2021/03/04 01:51:42+0000,-41.24,-48.12,-32.10,-50.52,-54.33,-56.49
2021/03/04 01:52:34+0000,-41.15,-46.07,-32.05,-50.99,-54.07,-55.69
2021/03/04 01:53:27+0000,-40.97,-46.05,-32.63,-50.49,-52.87,-55.49
2021/03/04 01:54:19+0000,-41.14,-46.72,-32.44,-49.68,-54.03,-55.81
2021/03/04 01:55:11+0000,-41.84,-46.85,-32.13,-50.31,-53.04,-56.61
2021/03/04 01:56:03+0000,-41.94,-45.41,-32.20,-50.62,-53.83,-56.12
2021/03/04 01:56:55+0000,-40.27,-46.80,-33.00,-50.21,-52.95,-56.58
2021/03/04 01:57:47+0000,-41.49,-46.13,-32.80,-51.01,-53.01,-56.02
2021/03/04 01:58:39+0000,-41.90,-49.04,-32.69,-50.12,-52.80,-56.72
2021/03/04 01:59:31+0000,-42.12,-48.27,-32.15,-49.90,-53.31,-56.18
2021/03/04 02:00:23+0000,-41.76,-49.76,-32.41,-51.09,-53.49,-56.01
2021/03/04 02:01:22+0000,-41.57,-46.12,-32.06,-50.09,-53.39,-55.92
2021/03/04 02:02:15+0000,-42.46,-48.16,-32.12,-50.33,-52.74,-56.01
2021/03/04 02:03:07+0000,-41.82,-48.26,-32.26,-50.36,-53.51,-56.75
2021/03/04 02:03:59+0000,-41.69,-48.78,-32.33,-50.42,-52.76,-56.15
2021/03/04 02:04:51+0000,-40.16,-50.29,-32.40,-50.05,-53.00,-55.51
2021/03/04 02:05:43+0000,-40.76,-48.08,-32.41,-50.07,-52.70,-56.71
2021/03/04 02:06:35+0000,-41.73,-49.40,-32.06,-50.82,-53.33,-55.35
2021/03/04 02:07:27+0000,-39.67,-45.16,-32.67,-49.64,-53.13,-55.45
2021/03/04 02:08:19+0000,-39.82,-47.03,-33.37,-50.21,-53.51,-55.60
2021/03/04 02:09:11+0000,-40.86,-47.11,-32.34,-50.66,-52.88,-55.83
2021/03/04 02:10:03+0000,-41.74,-44.22,-32.21,-50.40,-53.94,-56.08
2021/03/04 02:11:03+0000,-40.77,-44.20,-31.98,-50.49,-53.48,-56.48
2021/03/04 02:11:55+0000,-41.02,-44.69,-33.02,-50.63,-53.29,-56.18
2021/03/04 02:12:47+0000,-38.89,-44.13,-32.62,-50.70,-52.90,-56.55
2021/03/04 02:13:39+0000,-41.53,-44.49,-32.91,-51.06,-53.56,-56.44
2021/03/04 02:14:31+0000,-40.33,-43.06,-32.76,-50.48,-53.56,-56.06
2021/03/04 02:15:23+0000,-36.69,-44.48,-32.81,-50.48,-53.38,-56.16
2021/03/04 02:16:15+0000,-40.28,-45.96,-32.92,-51.02,-53.53,-55.61
2021/03/04 02:17:07+0000,-39.48,-48.61,-33.11,-50.79,-54.14,-55.69
2021/03/04 02:17:59+0000,-40.31,-46.78,-33.36,-50.86,-53.90,-54.21
2021/03/04 02:18:51+0000,-38.16,-49.77,-33.03,-50.89,-53.43,-54.31
2021/03/04 02:19:43+0000,-38.88,-45.20,-33.32,-52.03,-52.85,-54.19
2021/03/04 02:20:35+0000,-38.51,-49.97,-32.79,-50.96,-53.04,-53.99
2021/03/04 02:21:35+0000,-37.87,-49.60,-32.29,-51.17,-52.94,-54.64
2021/03/04 02:22:27+0000,-37.10,-47.31,-33.70,-51.46,-53.08,-54.23
2021/03/04 02:23:19+0000,-38.04,-44.35,-32.36,-50.74,-52.93,-54.40
2021/03/04 02:24:11+0000,-40.72,-46.37,-32.15,-51.52,-52.99,-54.18
2021/03/04 02:25:03+0000,-36.38,-44.06,-32.23,-51.43,-53.28,-54.39
2021/03/04 02:25:55+0000,-37.98,-44.61,-33.26,-51.02,-52.76,-54.34
2021/03/04 02:26:47+0000,-40.06,-44.04,-33.06,-50.60,-53.13,-53.63
2021/03/04 02:27:40+0000,-40.49,-42.46,-32.64,-51.37,-53.46,-54.40
2021/03/04 02:28:32+0000,-39.86,-44.45,-32.35,-51.02,-53.18,-54.23
2021/03/04 02:29:24+0000,-36.45,-45.84,-32.63,-51.13,-52.97,-54.57
2021/03/04 02:30:16+0000,-40.31,-41.14,-32.58,-50.76,-52.86,-53.60
2021/03/04 02:31:16+0000,-40.06,-48.82,-32.65,-51.16,-52.33,-53.70
2021/03/04 02:32:08+0000,-39.68,-49.20,-32.94,-51.73,-53.31,-53.41
2021/03/04 02:33:00+0000,-38.35,-45.48,-33.16,-51.49,-52.76,-53.54
2021/03/04 02:33:52+0000,-36.81,-49.79,-32.95,-51.27,-53.08,-53.42
2021/03/04 02:34:44+0000,-37.99,-48.23,-33.36,-51.28,-53.28,-53.27
2021/03/04 02:35:36+0000,-39.78,-50.44,-32.26,-51.32,-52.94,-53.03
2021/03/04 02:36:28+0000,-37.39,-45.71,-32.71,-51.53,-52.91,-54.37
2021/03/04 02:37:20+0000,-38.17,-47.75,-32.55,-51.31,-53.05,-53.96
2021/03/04 02:38:12+0000,-39.87,-48.42,-32.93,-51.07,-52.72,-54.92
2021/03/04 02:39:04+0000,-40.00,-45.26,-33.16,-51.65,-53.01,-54.82
2021/03/04 02:39:57+0000,-33.30,-46.13,-32.56,-51.00,-52.86,-54.47
2021/03/04 02:40:49+0000,-36.56,-47.88,-33.44,-51.43,-53.22,-54.48
2021/03/04 02:41:49+0000,-33.94,-47.88,-32.83,-51.58,-53.71,-55.20
2021/03/04 02:42:41+0000,-39.73,-46.49,-33.57,-51.09,-52.94,-54.73
2021/03/04 02:43:33+0000,-37.01,-50.16,-33.36,-51.25,-52.77,-54.98
2021/03/04 02:44:25+0000,-33.78,-49.30,-32.25,-51.72,-53.20,-53.79
2021/03/04 02:45:18+0000,-36.72,-45.75,-32.20,-52.16,-53.57,-54.29
2021/03/04 02:46:10+0000,-39.25,-45.82,-32.28,-51.22,-53.33,-54.21
2021/03/04 02:47:02+0000,-41.23,-46.07,-32.30,-45.26,-53.35,-54.32
2021/03/04 02:47:54+0000,-35.23,-49.29,-32.78,-45.50,-52.74,-54.27
2021/03/04 02:48:46+0000,-39.51,-46.62,-32.32,-44.98,-52.90,-54.10
2021/03/04 02:49:38+0000,-39.81,-49.82,-32.50,-43.68,-52.86,-54.05
2021/03/04 02:50:30+0000,-40.37,-49.35,-32.01,-44.41,-52.72,-54.02
2021/03/04 02:51:31+0000,-40.45,-48.94,-32.01,-44.48,-52.68,-54.47
2021/03/04 02:52:23+0000,-39.24,-45.72,-32.06,-42.90,-52.61,-54.61
2021/03/04 02:53:15+0000,-39.30,-44.86,-32.61,-44.41,-52.57,-53.84
2021/03/04 02:54:07+0000,-37.48,-45.21,-31.85,-44.25,-53.01,-53.13
2021/03/04 02:54:59+0000,-35.21,-44.43,-32.60,-42.97,-53.14,-53.46
2021/03/04 02:55:51+0000,-34.46,-43.46,-32.54,-43.07,-52.90,-53.81
2021/03/04 02:56:43+0000,-38.86,-45.19,-33.01,-43.60,-52.93,-54.22
2021/03/04 02:57:35+0000,-39.15,-45.78,-32.71,-43.29,-53.12,-54.35
2021/03/04 02:58:27+0000,-36.45,-45.39,-32.32,-44.09,-51.82,-54.51
2021/03/04 02:59:19+0000,-37.93,-44.74,-32.77,-43.62,-52.71,-54.04
2021/03/04 03:00:11+0000,-38.88,-43.60,-32.72,-42.26,-53.43,-53.82
2021/03/04 03:01:12+0000,-37.83,-44.29,-32.95,-42.14,-53.36,-53.47
2021/03/04 03:02:04+0000,-38.17,-45.94,-32.23,-42.04,-52.56,-54.24
2021/03/04 03:02:56+0000,-38.06,-45.36,-32.76,-42.06,-52.35,-53.48
2021/03/04 03:03:48+0000,-38.18,-45.60,-33.05,-40.29,-53.17,-53.43
2021/03/04 03:04:40+0000,-38.04,-44.92,-31.68,-40.57,-53.01,-52.85
2021/03/04 03:05:32+0000,-38.39,-45.33,-32.69,-41.76,-53.36,-52.69
2021/03/04 03:06:24+0000,-38.93,-45.20,-32.71,-41.95,-52.60,-52.71
2021/03/04 03:07:16+0000,-38.09,-47.52,-32.45,-41.60,-52.67,-53.00
2021/03/04 03:08:08+0000,-37.99,-45.64,-32.68,-42.61,-53.04,-53.17
2021/03/04 03:09:00+0000,-39.23,-44.32,-32.59,-41.84,-53.20,-53.07
2021/03/04 03:09:53+0000,-37.97,-44.67,-32.34,-42.46,-52.89,-52.90
2021/03/04 03:10:45+0000,-38.08,-45.23,-32.37,-41.87,-52.82,-53.42
2021/03/04 03:11:46+0000,-39.19,-43.93,-32.49,-41.81,-52.77,-53.93
2021/03/04 03:12:38+0000,-37.62,-44.88,-32.49,-41.10,-52.63,-53.51
2021/03/04 03:13:30+0000,-37.33,-46.14,-31.95,-40.73,-53.26,-53.88
2021/03/04 03:14:22+0000,-38.49,-46.46,-32.62,-41.18,-53.07,-54.31
2021/03/04 03:15:14+0000,-39.46,-46.56,-31.83,-41.88,-53.22,-53.89
2021/03/04 03:16:06+0000,-39.39,-46.42,-32.32,-41.08,-53.05,-54.38
2021/03/04 03:16:58+0000,-38.98,-46.93,-32.14,-42.19,-52.71,-53.75
2021/03/04 03:17:50+0000,-38.50,-46.45,-32.16,-41.97,-52.49,-52.80
2021/03/04 03:18:42+0000,-38.03,-45.98,-32.63,-42.18,-52.75,-53.20
2021/03/04 03:19:34+0000,-39.29,-45.23,-31.94,-42.11,-52.94,-53.95
2021/03/04 03:20:26+0000,-38.95,-46.11,-32.31,-41.08,-53.35,-54.05
2021/03/04 03:21:27+0000,-39.01,-45.18,-31.76,-40.73,-52.69,-53.51
2021/03/04 03:22:19+0000,-38.92,-45.48,-31.92,-41.36,-53.26,-53.25
2021/03/04 03:23:11+0000,-38.06,-45.37,-32.90,-41.33,-52.66,-53.20
2021/03/04 03:24:03+0000,-38.33,-45.22,-32.13,-41.70,-52.75,-53.49
2021/03/04 03:24:55+0000,-38.34,-45.63,-32.34,-42.40,-53.11,-54.27
2021/03/04 03:25:47+0000,-37.36,-44.61,-32.10,-41.83,-53.12,-53.39
2021/03/04 03:26:39+0000,-37.24,-45.34,-32.06,-42.07,-53.22,-53.27
2021/03/04 03:27:31+0000,-37.45,-44.34,-31.70,-42.10,-53.23,-52.70
2021/03/04 03:28:23+0000,-37.44,-43.34,-32.14,-41.65,-52.76,-53.08
2021/03/04 03:29:15+0000,-38.30,-46.34,-32.32,-42.31,-52.33,-53.67
2021/03/04 03:30:08+0000,-37.36,-46.32,-32.59,-43.31,-52.80,-54.03
2021/03/04 03:31:09+0000,-35.02,-46.81,-32.19,-42.26,-52.97,-53.22
2021/03/04 03:32:01+0000,-38.32,-43.43,-31.82,-42.05,-52.45,-53.80
2021/03/04 03:32:53+0000,-37.23,-47.00,-32.72,-42.82,-53.09,-53.64
2021/03/04 03:33:45+0000,-38.10,-45.90,-32.17,-41.87,-52.83,-53.92
2021/03/04 03:34:37+0000,-35.36,-47.02,-32.31,-42.39,-53.35,-54.08
2021/03/04 03:35:29+0000,-37.71,-43.90,-32.06,-51.11,-52.89,-53.49
2021/03/04 03:36:21+0000,-37.14,-47.41,-32.52,-51.04,-52.70,-53.71
2021/03/04 03:37:13+0000,-38.51,-46.17,-32.82,-50.29,-53.35,-54.09
2021/03/04 03:38:05+0000,-37.26,-44.19,-32.55,-51.26,-53.31,-53.80
2021/03/04 03:38:57+0000,-37.74,-43.72,-32.62,-51.24,-52.63,-53.18
2021/03/04 03:39:49+0000,-38.62,-46.72,-32.80,-51.42,-53.09,-54.36
2021/03/04 03:40:41+0000,-36.95,-47.30,-32.41,-50.80,-52.45,-53.95
2021/03/04 03:41:41+0000,-38.81,-46.61,-32.52,-50.08,-52.98,-53.62
2021/03/04 03:42:33+0000,-38.34,-44.40,-32.82,-50.95,-52.95,-53.34
2021/03/04 03:43:25+0000,-37.39,-43.99,-31.99,-50.77,-52.56,-54.26
2021/03/04 03:44:17+0000,-38.49,-47.67,-32.24,-51.02,-52.46,-54.18
2021/03/04 03:45:09+0000,-37.81,-44.84,-32.65,-51.07,-52.88,-54.50
2021/03/04 03:46:01+0000,-37.80,-43.05,-32.65,-51.44,-52.55,-54.12
2021/03/04 03:46:53+0000,-38.37,-43.28,-33.03,-51.36,-52.40,-54.42
2021/03/04 03:47:45+0000,-38.42,-46.09,-32.85,-50.79,-52.38,-53.23
2021/03/04 03:48:37+0000,-37.51,-46.87,-32.38,-50.92,-52.78,-54.05
2021/03/04 03:49:29+0000,-38.06,-43.36,-32.95,-50.95,-52.25,-53.93
2021/03/04 03:50:22+0000,-38.20,-46.81,-33.23,-51.57,-52.15,-54.20
2021/03/04 03:51:22+0000,-37.90,-47.55,-33.34,-50.95,-52.73,-53.85
2021/03/04 03:52:14+0000,-37.66,-45.79,-33.53,-51.28,-52.79,-53.54
2021/03/04 03:53:07+0000,-35.44,-46.65,-33.00,-51.23,-52.21,-53.86
2021/03/04 03:53:59+0000,-37.88,-43.68,-33.07,-51.15,-53.29,-53.19
2021/03/04 03:54:51+0000,-38.19,-46.19,-32.86,-51.01,-52.56,-53.88
2021/03/04 03:55:43+0000,-37.31,-46.25,-32.52,-51.69,-52.78,-53.41
2021/03/04 03:56:35+0000,-37.69,-44.07,-33.05,-51.28,-52.82,-53.77
2021/03/04 03:57:27+0000,-38.36,-43.96,-33.36,-50.96,-52.19,-53.70
2021/03/04 03:58:19+0000,-38.26,-45.26,-32.40,-51.48,-52.20,-54.75
2021/03/04 03:59:11+0000,-37.66,-46.32,-33.05,-51.29,-53.12,-54.50
2021/03/04 04:00:03+0000,-38.99,-43.56,-32.08,-50.84,-52.57,-53.51
2021/03/04 04:01:05+0000,-37.60,-46.79,-32.06,-51.72,-52.07,-54.03
2021/03/04 04:01:57+0000,-37.98,-43.31,-31.83,-51.39,-52.19,-53.97
2021/03/04 04:02:49+0000,-38.98,-45.43,-32.35,-51.20,-52.05,-53.31
2021/03/04 04:03:41+0000,-37.59,-46.14,-32.03,-51.58,-51.40,-53.43
2021/03/04 04:04:33+0000,-37.56,-43.28,-32.78,-51.34,-52.29,-53.82
2021/03/04 04:05:25+0000,-38.38,-43.79,-32.23,-51.01,-51.89,-53.36
2021/03/04 04:06:17+0000,-39.13,-46.34,-33.09,-51.34,-52.33,-53.64
2021/03/04 04:07:09+0000,-37.18,-46.32,-32.93,-51.26,-52.32,-54.21
2021/03/04 04:08:01+0000,-38.48,-43.61,-32.46,-51.95,-52.68,-53.89
2021/03/04 04:08:53+0000,-38.34,-43.27,-32.68,-50.65,-51.86,-53.57
2021/03/04 04:09:45+0000,-37.90,-45.14,-32.70,-51.35,-52.65,-53.46
2021/03/04 04:10:37+0000,-37.45,-45.98,-32.40,-50.35,-52.62,-53.77
2021/03/04 04:11:37+0000,-34.77,-45.16,-32.29,-50.82,-52.08,-53.20
2021/03/04 04:12:29+0000,-38.96,-43.19,-32.47,-50.24,-52.70,-53.63
2021/03/04 04:13:21+0000,-38.77,-46.72,-32.44,-50.97,-52.24,-53.94
2021/03/04 04:14:13+0000,-38.11,-45.96,-32.31,-51.12,-52.53,-54.28
2021/03/04 04:15:05+0000,-38.29,-45.53,-32.60,-50.48,-52.67,-55.31
2021/03/04 04:15:58+0000,-34.14,-45.42,-32.95,-51.16,-53.19,-56.03
2021/03/04 04:16:50+0000,-34.49,-45.60,-32.35,-51.05,-52.45,-55.22
2021/03/04 04:17:42+0000,-38.77,-46.18,-32.13,-50.47,-52.86,-55.16
2021/03/04 04:18:34+0000,-39.54,-45.96,-32.27,-50.84,-53.22,-55.74
2021/03/04 04:19:26+0000,-34.39,-46.28,-32.39,-51.04,-53.08,-56.03
2021/03/04 04:20:18+0000,-38.13,-46.64,-32.28,-51.05,-52.93,-55.80
2021/03/04 04:21:18+0000,-38.08,-46.24,-32.65,-51.84,-53.08,-54.95
2021/03/04 04:22:10+0000,-39.20,-45.72,-32.18,-50.63,-52.27,-55.03
2021/03/04 04:23:02+0000,-38.44,-45.95,-32.28,-51.29,-52.99,-53.97
2021/03/04 04:23:54+0000,-38.46,-46.23,-32.22,-51.05,-52.25,-54.63
2021/03/04 04:24:46+0000,-37.82,-46.01,-32.82,-52.41,-51.87,-54.19
2021/03/04 04:25:38+0000,-37.36,-46.38,-32.30,-50.97,-52.08,-53.95
2021/03/04 04:26:30+0000,-38.33,-46.96,-32.44,-50.53,-51.94,-53.79
2021/03/04 04:27:23+0000,-38.35,-46.44,-32.56,-51.47,-52.35,-53.50
2021/03/04 04:28:15+0000,-39.36,-47.29,-32.41,-50.26,-51.87,-53.46
2021/03/04 04:29:07+0000,-38.30,-47.11,-32.54,-50.42,-52.26,-53.72
2021/03/04 04:29:59+0000,-37.80,-46.63,-32.22,-51.48,-52.90,-53.74
2021/03/04 04:30:51+0000,-37.76,-46.65,-32.61,-51.35,-52.34,-53.66
2021/03/04 04:31:51+0000,-38.21,-46.63,-32.59,-51.30,-51.90,-53.50
2021/03/04 04:32:43+0000,-38.39,-45.46,-32.13,-51.40,-52.22,-53.64
2021/03/04 04:33:35+0000,-38.61,-46.61,-32.17,-52.04,-51.50,-53.63
2021/03/04 04:34:27+0000,-38.89,-47.25,-32.00,-51.36,-52.13,-53.41
2021/03/04 04:35:19+0000,-38.04,-46.20,-32.25,-52.05,-51.79,-52.96
2021/03/04 04:36:11+0000,-27.59,-46.52,-32.75,-51.75,-52.70,-53.83
2021/03/04 04:37:03+0000,-39.53,-47.06,-32.80,-51.56,-52.38,-53.64
2021/03/04 04:37:55+0000,-37.76,-46.58,-32.88,-51.15,-52.85,-53.88
2021/03/04 04:38:47+0000,-38.61,-46.66,-32.75,-51.33,-51.57,-53.82
2021/03/04 04:39:39+0000,-37.37,-46.00,-32.55,-51.56,-52.06,-53.70
2021/03/04 04:40:32+0000,-38.10,-46.16,-32.19,-51.40,-52.29,-54.11
2021/03/04 04:41:31+0000,-39.17,-43.87,-32.87,-50.76,-52.16,-54.24
2021/03/04 04:42:23+0000,-39.43,-45.98,-32.80,-51.27,-52.29,-53.56
2021/03/04 04:43:15+0000,-39.18,-46.84,-32.37,-51.06,-53.12,-54.00
2021/03/04 04:44:07+0000,-37.05,-45.40,-32.09,-51.74,-52.91,-53.62
2021/03/04 04:44:59+0000,-38.00,-46.16,-32.87,-51.72,-53.09,-53.57
2021/03/04 04:45:51+0000,-37.80,-46.73,-32.59,-50.88,-52.31,-53.90